• Join FlightAware (Why Join?)
  • Login
  • US Flag 
06:29PM EST


 

Airport Tracker/Info


-or-


 

Live Flight TrackerFlight Track Log ✈ RPA3196 ✈ 10-May-2013 ✈ KPHL - KBTV

Flight Track Log - Related Links

Times and Time Zones

All times are in EDT time to prevent confusion due to time zone crossing. See the RPA3196 flight status page for this flight to view local times or setup timezone preferences in your user account.

Time Position Orientation Groundspeed Altitude Reporting Facility
EDT Latitude Longitude Course Direction KTS MPH feet Rate Location/Type
09:38AM 39.8667 -75.2833 37° Northeast 153 176 800  Level Philadelphia TRACON
09:40AM 39.8167 -75.3333 218° Southwest 226 260 3,100 1,942 Climbing Philadelphia TRACON
09:41AM 39.8167 -74.8868 90° East  Level FlightAware Approximate
09:41AM 39.7500 -75.3000 159° South 289 333 5,300  Level Philadelphia TRACON
09:42AM 39.7972 -74.7692 105° East  Level FlightAware Approximate
09:42AM 39.7667 -75.2000 78° East 292 336 8,000  Level Philadelphia TRACON
09:43AM 39.8134 -74.6699 37° Northeast  Level FlightAware Approximate
09:43AM 39.7667 -75.0833 90° East 310 357 10,600  Level Philadelphia TRACON
09:45AM 39.7881 -74.8069 84° East 349 402 12,400 1,259 Climbing New York Center
09:46AM 39.8192 -74.6869 71° East 349 402 14,900 2,168 Climbing New York Center
09:47AM 39.8989 -74.6131 35° Northeast 322 371 16,700 1,765 Climbing New York Center
09:48AM 39.9808 -74.5283 38° Northeast 343 395 18,400 1,736 Climbing New York Center
09:49AM 40.0647 -74.4486 36° Northeast 359 413 20,200 1,574 Climbing New York Center
09:50AM 40.1525 -74.3719 34° Northeast 374 430 21,600 1,438 Climbing New York Center
09:51AM 40.2517 -74.3336 16° North 369 425 23,100 1,450 Climbing New York Center
09:52AM 40.3569 -74.2981 14° North 369 425 24,500 1,475 Climbing New York Center
09:53AM 40.4669 -74.2383 22° Northeast 379 436 26,000 1,261 Climbing New York Center
09:54AM 40.5569 -74.1500 37° Northeast 404 465 27,000 316 Climbing New York Center
09:56AM 40.7861 -74.0600 17° North 396 456 27,000  Level Boston Center
09:57AM 40.8950 -74.0272 13° North 391 450 27,000  Level Boston Center
09:58AM 40.9997 -73.9939 14° North 391 450 27,000  Level Boston Center
09:59AM 41.1064 -73.9581 14° North 391 450 27,000  Level Boston Center
10:00AM 41.2342 -73.9167 14° North 391 450 27,000  Level Boston Center
10:01AM 41.3408 -73.8861 12° North 391 450 27,000  Level Boston Center
10:02AM 41.4475 -73.8497 14° North 391 450 27,000  Level Boston Center
10:03AM 41.5542 -73.8133 14° North 391 450 27,000  Level Boston Center
10:04AM 41.6547 -73.7847 12° North 385 443 27,000  Level Boston Center
10:05AM 41.7675 -73.7483 14° North 392 451 27,000  Level Boston Center
10:06AM 41.8700 -73.7169 13° North 392 451 27,000  Level Boston Center
10:07AM 41.9789 -73.6828 13° North 392 451 27,000  Level Boston Center
10:08AM 42.0878 -73.6403 16° North 392 451 27,000  Level Boston Center
10:09AM 42.1944 -73.6058 13° North 398 458 27,000  Level Boston Center
10:10AM 42.3008 -73.5714 13° North 393 452 27,000  Level Boston Center
10:11AM 42.4056 -73.5422 12° North 393 452 27,000  Level Boston Center
10:13AM 42.5122 -73.5075 13° North 393 452 27,000  Level Boston Center
10:14AM 42.6397 -73.4647 14° North 393 452 27,000  Level Boston Center
10:15AM 42.7461 -73.4297 14° North 393 452 27,000  Level Boston Center
10:16AM 42.8422 -73.4000 13° North 393 452 27,000  Level Boston Center
10:17AM 42.9386 -73.3619 16° North 393 452 27,000 -600 Level Boston Center
10:18AM 43.0594 -73.3408 North 393 452 25,800 -1,500 Descending Boston Center
10:19AM 43.1639 -73.3339 North 382 440 24,000 -900 Descending Boston Center
10:20AM 43.2658 -73.3325 North 376 433 24,000  Level Boston Center
10:21AM 43.3703 -73.3256 North 370 426 24,000 -400 Level Boston Center
10:22AM 43.4619 -73.3153 North 365 420 23,200 -1,700 Descending Boston Center
10:23AM 43.5850 -73.3114 North 365 420 20,600 -2,400 Descending Boston Center
10:24AM 43.6850 -73.3072 North 365 420 18,400 -2,050 Descending Boston Center
10:25AM 43.7808 -73.3000 North 365 420 16,500 -2,000 Descending Boston Center
10:26AM 43.8747 -73.2956 North 344 396 14,400 -2,000 Descending Boston Center
10:27AM 43.9539 -73.2967 359° North 334 384 12,500 -1,950 Descending Boston Center
10:28AM 44.0394 -73.3036 357° North 308 354 10,500 -2,350 Descending Boston Center
10:29AM 44.1183 -73.3106 356° North 288 331 7,800 -2,550 Descending Boston Center
10:30AM 44.1933 -73.3261 352° North 274 315 5,400 -2,200 Descending Boston Center
10:31AM 44.2619 -73.3531 344° North 262 302 3,400 -1,150 Descending Boston Center
10:32AM 44.3242 -73.3775 344° North 246 283 3,100 -200 Descending Boston Center
10:33AM 44.3825 -73.3928 349° North 217 250 3,000 -50 Descending Boston Center
10:34AM 44.4428 -73.3997 355° North 217 250 3,000 50 Level Boston Center
10:35AM 44.5094 -73.4064 356° North 217 250 3,100 -250 Climbing Boston Center
10:36AM 44.5658 -73.3958 North 217 250 2,500 -450 Descending Boston Center
10:37AM 44.5747 -73.3258 80° East 172 198 2,200 -150 Descending Boston Center
10:38AM 44.5417 -73.2703 130° Southeast 151 174 2,200  Level Boston Center